When you browse on this site, cookies collect data to enhance your experience and personalize the content and advertising you see.
Visit our Privacy Policy to learn more. By continuing to use the site, you agree to this use of cookies and data.
  • In Lithuania
  • List of Countries
  • For 7 days
  • Water Temperature
  • Satellite Maps
  • Weather Map
  • Weather Widgets
  • user-avatar
    Login

    Hourly Weather Saskatoon

    Today, 27 May, Monday

    Time Temperature Precipitation Wind Pressure Humidity
    00:00 +9°C° 0 mm 3 mps 720 mmHg 50%
    01:00 +9°C° 0 mm 3 mps 719 mmHg 51%
    02:00 +8°C° 0 mm 3 mps 719 mmHg 52%
    03:00 +8°C° 0 mm 3 mps 719 mmHg 55%
    04:00 +8°C° 0 mm 3 mps 719 mmHg 59%
    05:00 +8°C° 0 mm 3 mps 719 mmHg 62%
    06:00 +10°C° 0 mm 4 mps 719 mmHg 57%
    07:00 +12°C° 0 mm 4 mps 719 mmHg 52%
    08:00 +14°C° 0 mm 4 mps 719 mmHg 48%
    09:00 +17°C° 0 mm 4 mps 719 mmHg 43%
    10:00 +18°C° 0 mm 3 mps 718 mmHg 39%
    11:00 +20°C° 0 mm 3 mps 718 mmHg 34%
    12:00 +21°C° 0 mm 3 mps 718 mmHg 32%
    13:00 +21°C° 0 mm 3 mps 717 mmHg 30%
    14:00 +22°C° 0 mm 3 mps 717 mmHg 27%
    15:00 +22°C° 0 mm 3 mps 716 mmHg 28%
    16:00 +24°C° 0 mm 3 mps 716 mmHg 28%
    17:00 +24°C° 0 mm 3 mps 716 mmHg 28%
    18:00 +21°C° 0 mm 3 mps 715 mmHg 33%
    19:00 +19°C° 0 mm 2 mps 715 mmHg 39%
    20:00 +18°C° 0 mm 2 mps 715 mmHg 44%
    21:00 +17°C° 0 mm 2 mps 715 mmHg 46%
    22:00 +16°C° 0 mm 2 mps 715 mmHg 48%
    23:00 +15°C° 0 mm 2 mps 715 mmHg 50%

    Tomorrow, 28 May, Tuesday

    Time Temperature Precipitation Wind Pressure Humidity
    00:00 +14°C° 0 mm 2 mps 715 mmHg 52%
    01:00 +14°C° 0 mm 2 mps 715 mmHg 53%
    02:00 +12°C° 0 mm 3 mps 714 mmHg 55%
    03:00 +12°C° 0 mm 3 mps 714 mmHg 56%
    04:00 +12°C° 0 mm 3 mps 714 mmHg 57%
    05:00 +13°C° 0 mm 2 mps 714 mmHg 59%
    06:00 +14°C° 0 mm 3 mps 714 mmHg 53%
    07:00 +18°C° 0 mm 3 mps 715 mmHg 48%
    08:00 +20°C° 0 mm 4 mps 715 mmHg 42%
    09:00 +22°C° 0 mm 4 mps 715 mmHg 39%
    10:00 +23°C° 0 mm 4 mps 715 mmHg 35%
    11:00 +26°C° 0 mm 4 mps 715 mmHg 31%
    12:00 +27°C° 0 mm 4 mps 715 mmHg 30%
    13:00 +27°C° 0 mm 4 mps 715 mmHg 29%
    14:00 +28°C° 0 mm 4 mps 715 mmHg 28%
    15:00 +28°C° 0 mm 4 mps 714 mmHg 28%
    16:00 +28°C° 0 mm 4 mps 714 mmHg 29%
    17:00 +27°C° 0 mm 4 mps 714 mmHg 29%
    18:00 +26°C° 0 mm 4 mps 714 mmHg 35%
    19:00 +24°C° 0 mm 3 mps 713 mmHg 40%
    20:00 +21°C° 0 mm 2 mps 713 mmHg 45%
    21:00 +20°C° 0 mm 2 mps 713 mmHg 46%
    22:00 +19°C° 0 mm 2 mps 713 mmHg 48%
    23:00 +18°C° 0 mm 2 mps 713 mmHg 49%

    Day after tomorrow, 29 May, Wednesday

    Time Temperature Precipitation Wind Pressure Humidity
    00:00 +17°C° 0 mm 3 mps 713 mmHg 49%
    01:00 +17°C° 0 mm 3 mps 713 mmHg 50%
    02:00 +16°C° 0 mm 3 mps 713 mmHg 50%
    03:00 +16°C° 0 mm 3 mps 713 mmHg 50%
    04:00 +16°C° 0 mm 3 mps 713 mmHg 50%
    05:00 +14°C° 0 mm 3 mps 713 mmHg 50%
    06:00 +18°C° 0 mm 3 mps 713 mmHg 44%
    07:00 +20°C° 0 mm 3 mps 713 mmHg 38%
    08:00 +23°C° 0 mm 4 mps 714 mmHg 33%
    09:00 +25°C° 0 mm 4 mps 714 mmHg 29%
    10:00 +27°C° 0 mm 4 mps 714 mmHg 26%
    11:00 +28°C° 0 mm 5 mps 714 mmHg 23%
    12:00 +29°C° 0 mm 5 mps 713 mmHg 23%
    13:00 +29°C° 0 mm 5 mps 713 mmHg 22%
    14:00 +30°C° 0 mm 5 mps 713 mmHg 21%
    15:00 +30°C° 0 mm 5 mps 713 mmHg 22%
    16:00 +29°C° 0 mm 5 mps 712 mmHg 22%
    17:00 +29°C° 0 mm 5 mps 712 mmHg 22%
    18:00 +27°C° 0 mm 4 mps 712 mmHg 27%
    19:00 +25°C° 0 mm 3 mps 712 mmHg 31%
    20:00 +23°C° 0 mm 2 mps 711 mmHg 36%
    21:00 +21°C° 0 mm 2 mps 711 mmHg 36%
    22:00 +20°C° 0 mm 2 mps 711 mmHg 36%
    23:00 +19°C° 0 mm 2 mps 711 mmHg 36%

    30 May, Thursday

    Time Temperature Precipitation Wind Pressure Humidity
    00:00 +19°C° 0 mm 2 mps 711 mmHg 38%
    01:00 +18°C° 0 mm 2 mps 711 mmHg 39%
    02:00 +18°C° 0 mm 2 mps 711 mmHg 40%
    03:00 +17°C° 0 mm 2 mps 711 mmHg 42%
    04:00 +17°C° 0 mm 2 mps 711 mmHg 44%
    05:00 +17°C° 0 mm 2 mps 711 mmHg 46%
    06:00 +19°C° 0 mm 2 mps 711 mmHg 42%
    07:00 +21°C° 0 mm 2 mps 712 mmHg 39%
    08:00 +25°C° 0 mm 2 mps 712 mmHg 36%
    09:00 +26°C° 0 mm 3 mps 712 mmHg 32%
    10:00 +28°C° 0 mm 3 mps 712 mmHg 28%
    11:00 +30°C° 0 mm 3 mps 712 mmHg 24%
    12:00 +30°C° 0 mm 3 mps 712 mmHg 23%
    13:00 +31°C° 0 mm 3 mps 711 mmHg 22%
    14:00 +31°C° 0 mm 3 mps 711 mmHg 21%
    15:00 +31°C° 0 mm 3 mps 711 mmHg 22%
    16:00 +31°C° 0 mm 3 mps 711 mmHg 22%
    17:00 +31°C° 0 mm 2 mps 711 mmHg 22%
    18:00 +29°C° 0 mm 2 mps 711 mmHg 25%
    19:00 +27°C° 0 mm 2 mps 710 mmHg 29%
    20:00 +25°C° 0 mm 2 mps 710 mmHg 33%
    21:00 +24°C° 0 mm 2 mps 710 mmHg 32%
    22:00 +23°C° 0 mm 2 mps 710 mmHg 32%
    23:00 +21°C° 0 mm 2 mps 710 mmHg 31%

    31 May, Friday

    Time Temperature Precipitation Wind Pressure Humidity
    00:00 +21°C° 0 mm 2 mps 710 mmHg 32%
    01:00 +20°C° 0 mm 2 mps 710 mmHg 34%
    02:00 +20°C° 0 mm 2 mps 710 mmHg 35%
    03:00 +19°C° 0 mm 2 mps 710 mmHg 44%
    04:00 +18°C° 0 mm 3 mps 710 mmHg 53%
    05:00 +17°C° 0 mm 4 mps 710 mmHg 61%
    06:00 +18°C° 0 mm 4 mps 711 mmHg 62%
    07:00 +19°C° 0 mm 5 mps 712 mmHg 62%
    08:00 +19°C° 0 mm 5 mps 712 mmHg 62%
    09:00 +20°C° 0 mm 5 mps 712 mmHg 57%
    10:00 +21°C° 0 mm 5 mps 713 mmHg 51%
    11:00 +22°C° 0 mm 6 mps 713 mmHg 46%
    12:00 +22°C° 0 mm 5 mps 713 mmHg 45%
    13:00 +23°C° 0 mm 5 mps 713 mmHg 43%
    14:00 +23°C° 0 mm 5 mps 713 mmHg 42%
    15:00 +23°C° 0 mm 5 mps 714 mmHg 43%
    16:00 +22°C° 0 mm 5 mps 714 mmHg 43%
    17:00 +22°C° 0 mm 5 mps 714 mmHg 44%
    18:00 +21°C° 0 mm 4 mps 714 mmHg 48%
    19:00 +19°C° 0 mm 4 mps 714 mmHg 52%
    20:00 +18°C° 0 mm 3 mps 715 mmHg 56%
    21:00 +17°C° 0 mm 3 mps 715 mmHg 57%
    22:00 +16°C° 0 mm 3 mps 715 mmHg 58%
    23:00 +14°C° 0 mm 3 mps 715 mmHg 59%

    1 June, Saturday

    Time Temperature Precipitation Wind Pressure Humidity
    00:00 +13°C° 0 mm 3 mps 715 mmHg 58%
    01:00 +12°C° 0 mm 3 mps 715 mmHg 57%
    02:00 +11°C° 0 mm 3 mps 715 mmHg 57%
    03:00 +11°C° 0 mm 3 mps 716 mmHg 58%
    04:00 +12°C° 0 mm 2 mps 716 mmHg 60%
    05:00 +12°C° 0 mm 2 mps 716 mmHg 61%
    06:00 +13°C° 0 mm 2 mps 716 mmHg 55%
    07:00 +15°C° 0 mm 2 mps 717 mmHg 50%
    08:00 +17°C° 0 mm 2 mps 717 mmHg 44%
    09:00 +18°C° 0 mm 2 mps 717 mmHg 41%
    10:00 +20°C° 0 mm 3 mps 717 mmHg 37%
    11:00 +21°C° 0 mm 3 mps 716 mmHg 34%
    12:00 +22°C° 0 mm 3 mps 716 mmHg 32%
    13:00 +24°C° 0 mm 3 mps 716 mmHg 30%
    14:00 +24°C° 0 mm 2 mps 716 mmHg 29%
    15:00 +24°C° 0 mm 2 mps 715 mmHg 29%
    16:00 +25°C° 0 mm 2 mps 715 mmHg 28%
    17:00 +25°C° 0 mm 2 mps 715 mmHg 28%
    18:00 +23°C° 0 mm 2 mps 715 mmHg 33%
    19:00 +21°C° 0 mm 2 mps 714 mmHg 38%
    20:00 +19°C° 0 mm 2 mps 714 mmHg 43%
    21:00 +18°C° 0 mm 3 mps 714 mmHg 45%
    22:00 +17°C° 0 mm 3 mps 713 mmHg 48%
    23:00 +15°C° 0 mm 4 mps 713 mmHg 50%
    Show more